Overview Statistics Trail Chart Weather Telemetry Raw packets
 

This is the latest recevied weather packets stored in our database for station/object K8WEH. If no packets are shown the sender has not sent any weather packets the latest 10 day(s).

<< 111 112 113 114 115 116 >>
Time Temp. Humidity Pressure Rain* Wind** Luminosity Snow
1787785520 23.89° C 73% 1015.2 hPa 0 mm - - -
1787785219 23.89° C 73% 1015.2 hPa 0 mm - - -
1787784918 23.89° C 73% 1015.4 hPa 0 mm - - -
1787784617 23.89° C 72% 1015.5 hPa 0 mm - - -
1787784321 24.44° C 69% 1015.5 hPa 0 mm - - -
1787784017 24.44° C 70% 1015.3 hPa 0 mm - - -
1787783711 24.44° C 68% 1015.4 hPa 0 mm - - -
1787783412 24.44° C 66% 1015.4 hPa 0 mm - - -
1787783108 24.44° C 69% 1015.4 hPa 0 mm - - -
1787782808 24.44° C 67% 1015.3 hPa 0 mm - - -
1787782506 24.44° C 68% 1015.3 hPa 0 mm - - -
1787782204 25° C 69% 1015.5 hPa 0 mm - - -
1787781904 25° C 70% 1015.6 hPa 0 mm - - -
1787781602 25° C 70% 1015.6 hPa 0 mm - - -
1787781362 25° C 69% 1015.5 hPa 0 mm - - -
1787781058 25° C 68% 1015.7 hPa 0 mm - - -
1787780764 25° C 68% 1015.7 hPa 0 mm - - -
1787780456 25° C 67% 1015.9 hPa 0 mm - - -
1787780155 25.56° C 64% 1016 hPa 0 mm - - -
1787779853 25.56° C 61% 1016.1 hPa 0 mm - - -
1787779552 25.56° C 62% 1016.2 hPa 0 mm - - -
1787779250 25.56° C 65% 1016 hPa 0 mm - - -
1787778959 25.56° C 64% 1016 hPa 0 mm - - -
1787778647 26.11° C 65% 1016.1 hPa 0 mm - - -
1787778346 26.11° C 65% 1016.1 hPa 0 mm - - -

* Rain latest hour (hover to see other rain measurements)
** Current wind speed in m/s (hover to see current wind gust speed)